[[{"header":{"parameterUnit":"m.s-1","parameterCategory":1,"la1":30.2991,"la2":30.254,"lo1":-89.0895,"lo2":-89.0444,"dy":0.0017,"dx":0.0017,"nx":28,"ny":28,"refTime":"2024-08-24T03:00:00:Z","depth":0,"parameterNumber":2,"parameterNumberName":"U-component_of_WINDS"},"data":[0,0,0,0,0,0,0,0,0,0,0,0,0,0,0,0,0,0,0,0,0,0,0,0,0,0,0,0,0,0,0,0,0,0,0,0,0,0,0,0,0,0,0,0,0,0,0,0,0,0,0,0,0,0,0,0,0,0,-6.0363,-6.0363,0,-6.0395,-6.0396,-6.0396,-6.0265,-6.0261,-6.0258,-6.0254,-6.0285,-6.0289,-6.0293,0,0,0,0,0,0,0,0,0,0,0,0,0,-6.0184,-6.0188,-6.0363,-6.0363,-6.0364,-6.0395,-6.0396,-6.0396,-6.0266,-6.0261,-6.0257,-6.0252,-6.0283,-6.0288,-6.0294,0,0,0,0,0,0,0,0,0,0,0,0,0,-6.0244,-6.019,-6.0363,-6.0303,-6.0297,-6.0395,-6.0396,-6.0396,-6.0267,-6.0261,-6.0255,-6.025,-6.0282,-6.0288,-6.0294,-6.0451,0,0,-6.0315,-6.0318,0,0,0,0,0,0,0,0,-6.0241,-6.0251,-6.0311,-6.0307,-6.0301,-6.032,-6.0344,-6.0415,-6.0268,-6.0279,-6.0254,-6.0247,-6.0301,-6.0306,-6.0324,-6.0452,-6.0454,-6.0315,-6.0319,-6.0322,-6.0324,0,0,0,0,0,0,0,-6.0237,-6.0248,-6.0375,-6.0312,-6.0306,-6.0273,-6.0275,-6.0357,-6.0322,-6.0277,-6.0268,-6.0274,-6.0297,-6.0318,-6.0324,-6.0454,-6.0315,-6.0321,-6.0325,-6.0328,-6.0711,-6.0717,0,0,0,0,0,0,-6.0241,-6.0246,-6.0374,-6.0376,-6.0256,-6.0281,-6.0283,-6.032,-6.032,-6.0315,-6.0279,-6.0267,-6.031,-6.0317,-6.0325,-6.0507,-6.0322,-6.0328,-6.0332,-6.0705,-6.0712,-6.0719,0,0,0,0,0,0,-6.0238,-6.0254,-6.0373,-6.0309,-6.0321,-6.029,-6.0333,-6.0324,-6.0345,-6.0322,-6.0314,-6.0307,-6.0306,-6.0315,-6.0421,-6.0506,-6.0331,-6.0337,-6.0698,-6.0707,-6.0716,-6.0874,0,0,0,0,0,0,-6.0233,-6.0253,-6.0313,-6.0311,-6.0325,-6.047,-6.0338,-6.0329,-6.0357,-6.0343,-6.0346,-6.0341,-6.0302,-6.0411,-6.0427,-6.0512,-6.0342,-6.069,-6.0702,-6.0713,-6.0861,-6.0888,-6.0911,0,0,0,0,0,-6.0227,-6.0356,-6.0317,-6.0333,-6.04,-6.0475,-6.0483,-6.0436,-6.0364,-6.0424,-6.0409,-6.0341,-6.0495,-6.0423,-6.044,-6.0528,-6.0684,-6.0698,-6.0712,-6.085,-6.0883,-6.091,0,0,0,0,0,0,-6.0368,-6.0355,-6.0311,-6.0443,-6.0462,-6.0453,-6.0526,-6.0472,-6.051,-6.0495,-6.0434,-6.0436,-6.0552,-6.055,-6.0471,-6.0679,-6.0577,-6.0595,-6.0676,-6.0707,-6.0731,-6.0728,-6.0348,0,0,0,0,0,-6.0414,-6.0478,-6.0462,-6.058,-6.0592,-6.0558,-6.0589,-6.0552,-6.0567,-6.0574,-6.0566,-6.0584,-6.0636,-6.0671,-6.0718,-6.0861,-6.0859,-6.093,-6.0954,-6.0975,-6.0991,-6.1065,-6.1096,-6.0765,-6.0765,-6.0765,0,0,-6.0511,-6.0511,-6.0555,-6.0609,-6.0618,-6.0684,-6.0565,-6.064,-6.0688,-6.0585,-6.0684,-6.0679,-6.0694,-6.0819,-6.0873,-6.0821,-6.1082,-6.0993,-6.1009,-6.1014,-6.1083,-6.1114,-6.1142,-6.0775,-6.0773,-6.0771,0,0,-6.072,-6.0728,-6.0826,-6.0839,-6.0855,-6.0832,-6.0856,-6.0856,-6.0849,-6.0948,-6.0872,-6.0928,-6.1019,-6.1032,-6.1051,-6.1267,-6.1206,-6.1284,-6.1412,-6.1486,-6.1512,-6.1535,-6.1611,-6.1639,-6.13,-6.13,-6.1301,0,-6.0837,-6.0935,-6.0884,-6.0964,-6.0989,-6.0901,-6.1,-6.1014,-6.1045,-6.1064,-6.1005,-6.1118,-6.1122,-6.1248,-6.1301,-6.1319,-6.1344,-6.1282,-6.1513,-6.1535,-6.1555,-6.1627,-6.1656,-6.131,-6.1309,-6.1308,-6.1307,0,-6.1078,-6.1146,-6.1224,-6.1257,-6.1291,-6.1381,-6.1342,-6.1383,-6.1343,-6.1326,-6.1427,-6.1428,-6.1474,-6.1501,-6.1462,-6.1622,-6.1589,-6.1523,-6.1418,-6.1597,-6.1663,-6.169,-6.1323,-6.132,-6.1317,-6.1315,0,0,-6.1375,-6.138,-6.1409,-6.1423,-6.1435,-6.1486,-6.1571,-6.1617,-6.1652,-6.1677,-6.1745,-6.1825,-6.1764,-6.1786,-6.1748,-6.1812,-6.1982,-6.1738,-6.1737,-6.1782,-6.2157,-6.2206,-6.2238,-6.1942,-6.1947,-6.1951,-6.2155,0,-6.158,-6.1726,-6.1683,-6.1829,-6.1891,-6.1808,-6.1882,-6.1897,-6.1884,-6.1933,-6.1917,-6.1975,-6.189,-6.1903,-6.1963,-6.1949,-6.2056,-6.1933,-6.2004,-6.2007,-6.2002,-6.2273,-6.2325,-6.2517,-6.2181,-6.2185,-6.2188,0,-6.1837,-6.1873,-6.2027,-6.2028,-6.2052,-6.212,-6.2157,-6.2207,-6.2222,-6.2207,-6.2232,-6.2181,-6.2263,-6.216,-6.2272,-6.2189,-6.2216,-6.2213,-6.2219,-6.2223,-6.2108,-6.2283,-6.2578,-6.2606,-6.2229,-6.2225,-6.2223,0,-6.2038,-6.2124,-6.2227,-6.2241,-6.2246,-6.2295,-6.2299,-6.2308,-6.2338,-6.2371,-6.239,-6.2432,-6.2455,-6.2488,-6.2449,-6.2378,-6.2567,-6.246,-6.2556,-6.2557,-6.2598,-6.2596,-6.2901,-6.2618,-6.2618,-6.2617,-6.2617,0,-6.227,-6.2367,-6.2317,-6.238,-6.2485,-6.2435,-6.254,-6.2535,-6.2544,-6.2604,-6.2534,-6.2592,-6.2537,-6.259,-6.256,-6.2656,-6.2667,-6.2657,-6.2648,-6.2663,-6.2664,-6.2678,-6.2663,-6.2625,-6.2623,-6.2622,-6.2621,0,-6.2511,-6.2482,-6.2588,-6.2584,-6.2585,-6.2663,-6.2659,-6.2717,-6.2699,-6.2775,-6.279,-6.2761,-6.2819,-6.2784,-6.2842,-6.2822,-6.2948,-6.2921,-6.2943,-6.2936,-6.3033,-6.3024,-6.3356,-6.3396,-6.309,-6.3093,-6.3095,0,-6.266,-6.2733,-6.2737,-6.2773,-6.2782,-6.284,-6.287,-6.2823,-6.2858,-6.2881,-6.2935,-6.2987,-6.3026,-6.3123,-6.3106,-6.315,-6.3123,-6.3236,-6.3129,-6.3141,-6.3123,-6.3118,-6.3125,-6.3257,-6.3261,-6.3264,-6.3266,0,-6.2928,-6.291,-6.2957,-6.3,-6.3039,-6.307,-6.3095,-6.3128,-6.3081,-6.3123,-6.3181,-6.3212,-6.3272,-6.3324,-6.3362,-6.3364,-6.3308,-6.3301,-6.3325,-6.334,-6.3349,-6.3344,-6.3001,-6.3293,-6.329,-6.3288,-6.3287,-6.3286,-6.3126,-6.3186,-6.3199,-6.3254,-6.3268,-6.3294,-6.3348,-6.3337,-6.3385,-6.3431,-6.34,-6.347,-6.3482,-6.3527,-6.3537,-6.359,-6.3544,-6.3579,-6.3588,-6.3597,-6.361,-6.3343,-6.3597,-6.3596,-6.3595,-6.3595,-6.3594,0,-6.3389,-6.3393,-6.3444,-6.3482,-6.3525,-6.347,-6.3495,-6.3534,-6.3596,-6.3614,-6.3654,-6.3721,-6.3772,-6.376,-6.3805,-6.385,-6.3825,-6.3863,-6.3858,-6.3859,-6.3649,-6.3623,-6.3882,-6.3882,-6.3882,-6.3882,-6.3882,-6.3882,-6.353,-6.3629,-6.3613,-6.3719,-6.3722,-6.379,-6.3809,-6.3831,-6.3845,-6.3923,-6.3965,-6.3958,-6.3963,-6.4008,-6.4052,-6.4047,-6.4066,-6.4114,-6.41,-6.3903,-6.3874,-6.3847,-6.3822,-6.4119,-6.4119,-6.4305,-6.4307,-6.4308]},{"header":{"parameterUnit":"m.s-1","parameterCategory":1,"la1":30.2991,"la2":30.254,"lo1":-89.0895,"lo2":-89.0444,"dy":0.0017,"dx":0.0017,"nx":28,"ny":28,"refTime":"2024-08-24T03:00:00:Z","depth":0,"parameterNumber":3,"parameterNumberName":"V-component_of_WINDS"},"data":[0,0,0,0,0,0,0,0,0,0,0,0,0,0,0,0,0,0,0,0,0,0,0,0,0,0,0,0,0,0,0,0,0,0,0,0,0,0,0,0,0,0,0,0,0,0,0,0,0,0,0,0,0,0,0,0,0,0,-1.4645,-1.4644,0,-1.4532,-1.453,-1.4529,-1.4468,-1.4468,-1.4468,-1.4468,-1.4353,-1.435,-1.4347,0,0,0,0,0,0,0,0,0,0,0,0,0,-1.481,-1.4807,-1.4645,-1.4644,-1.4642,-1.4532,-1.453,-1.4529,-1.4468,-1.4468,-1.4468,-1.4468,-1.4354,-1.4351,-1.4347,0,0,0,0,0,0,0,0,0,0,0,0,0,-1.4722,-1.4806,-1.4645,-1.4599,-1.4594,-1.4532,-1.453,-1.4528,-1.4469,-1.4468,-1.4468,-1.4468,-1.4355,-1.4351,-1.4347,-1.4323,0,0,-1.4333,-1.4331,0,0,0,0,0,0,0,0,-1.4727,-1.4716,-1.4607,-1.4602,-1.4596,-1.4514,-1.4546,-1.446,-1.4469,-1.4516,-1.4468,-1.4468,-1.4407,-1.4398,-1.4377,-1.4318,-1.4313,-1.4333,-1.433,-1.4328,-1.4327,0,0,0,0,0,0,0,-1.4733,-1.472,-1.46,-1.4606,-1.4599,-1.4584,-1.4571,-1.453,-1.4464,-1.4512,-1.4507,-1.4495,-1.4404,-1.4382,-1.4374,-1.4311,-1.4333,-1.4329,-1.4326,-1.4325,-1.4225,-1.4225,0,0,0,0,0,0,-1.4746,-1.4726,-1.4604,-1.4597,-1.4662,-1.4581,-1.4567,-1.4541,-1.4464,-1.4452,-1.4495,-1.4492,-1.439,-1.438,-1.437,-1.4336,-1.4328,-1.4324,-1.4322,-1.4225,-1.4225,-1.4225,0,0,0,0,0,0,-1.475,-1.4736,-1.4608,-1.466,-1.4642,-1.4578,-1.4549,-1.4538,-1.4516,-1.4451,-1.4439,-1.4484,-1.4389,-1.4376,-1.4335,-1.4332,-1.4322,-1.4318,-1.4225,-1.4225,-1.4225,-1.427,0,0,0,0,0,0,-1.4755,-1.4738,-1.4728,-1.466,-1.464,-1.4575,-1.4549,-1.4536,-1.4509,-1.4504,-1.4438,-1.4427,-1.4388,-1.4342,-1.4331,-1.4325,-1.4315,-1.4225,-1.4225,-1.4225,-1.4268,-1.4271,-1.4274,0,0,0,0,0,-1.4761,-1.4746,-1.4728,-1.4714,-1.4627,-1.4575,-1.4564,-1.4518,-1.4509,-1.4498,-1.4457,-1.4429,-1.4334,-1.4338,-1.4325,-1.4318,-1.4225,-1.4225,-1.4225,-1.4267,-1.4271,-1.4274,0,0,0,0,0,0,-1.4816,-1.4736,-1.4716,-1.4678,-1.4634,-1.4565,-1.4551,-1.4524,-1.4482,-1.4479,-1.4425,-1.4411,-1.4374,-1.4342,-1.4348,-1.4291,-1.4277,-1.4274,-1.4313,-1.4316,-1.4319,-1.4327,-1.4311,0,0,0,0,0,-1.4824,-1.4788,-1.4721,-1.4694,-1.4673,-1.4616,-1.4592,-1.456,-1.4513,-1.4494,-1.4449,-1.4404,-1.4363,-1.4338,-1.4298,-1.4264,-1.4248,-1.4252,-1.4255,-1.4258,-1.4256,-1.4234,-1.4235,-1.4225,-1.4225,-1.4225,0,0,-1.484,-1.4791,-1.4773,-1.4704,-1.4666,-1.463,-1.4601,-1.4565,-1.4537,-1.4488,-1.4446,-1.4412,-1.4358,-1.432,-1.4301,-1.4292,-1.4255,-1.4258,-1.426,-1.4257,-1.4234,-1.4235,-1.4236,-1.4225,-1.4225,-1.4225,0,0,-1.4849,-1.481,-1.4782,-1.4745,-1.4687,-1.4649,-1.4643,-1.4578,-1.4553,-1.451,-1.4472,-1.4439,-1.4371,-1.4333,-1.4306,-1.43,-1.4273,-1.4289,-1.4303,-1.4282,-1.4283,-1.4283,-1.428,-1.428,-1.4287,-1.4287,-1.4287,0,-1.4876,-1.4821,-1.4772,-1.4737,-1.4708,-1.4661,-1.4632,-1.4599,-1.4531,-1.4512,-1.4503,-1.4416,-1.4376,-1.4328,-1.4326,-1.4306,-1.4296,-1.4296,-1.4287,-1.4287,-1.4286,-1.4283,-1.4282,-1.4289,-1.4289,-1.4289,-1.4289,0,-1.4855,-1.4818,-1.4802,-1.4737,-1.4706,-1.4675,-1.4621,-1.4596,-1.4567,-1.453,-1.4486,-1.4437,-1.4385,-1.4371,-1.4343,-1.4319,-1.4315,-1.4297,-1.4282,-1.429,-1.4286,-1.4284,-1.4292,-1.4292,-1.4291,-1.4291,0,0,-1.4897,-1.4805,-1.48,-1.4769,-1.4702,-1.4671,-1.4638,-1.4586,-1.4565,-1.452,-1.449,-1.4433,-1.4416,-1.4384,-1.4352,-1.4334,-1.4331,-1.4318,-1.4316,-1.4321,-1.4299,-1.4312,-1.4311,-1.4313,-1.4312,-1.4312,-1.4303,0,-1.4896,-1.4833,-1.4788,-1.4742,-1.4706,-1.466,-1.4631,-1.4587,-1.4551,-1.4515,-1.4476,-1.4436,-1.4417,-1.4397,-1.4378,-1.4336,-1.4326,-1.4336,-1.4284,-1.4283,-1.4298,-1.4309,-1.4323,-1.4317,-1.4301,-1.4301,-1.4301,0,-1.4887,-1.4842,-1.4793,-1.4728,-1.4711,-1.4685,-1.4633,-1.46,-1.4549,-1.4524,-1.4488,-1.4454,-1.4417,-1.4405,-1.4352,-1.436,-1.4336,-1.4312,-1.4311,-1.4303,-1.4292,-1.4301,-1.4314,-1.4313,-1.4298,-1.4298,-1.4298,0,-1.492,-1.4848,-1.4808,-1.4784,-1.4708,-1.469,-1.4658,-1.4606,-1.4578,-1.4533,-1.4513,-1.4465,-1.4439,-1.4402,-1.4356,-1.4352,-1.4307,-1.4292,-1.4285,-1.4286,-1.4277,-1.4278,-1.4285,-1.4264,-1.4264,-1.4264,-1.4264,0,-1.4924,-1.4895,-1.4822,-1.4798,-1.4764,-1.4712,-1.468,-1.4644,-1.4598,-1.4566,-1.4524,-1.4495,-1.4436,-1.44,-1.4364,-1.4325,-1.4313,-1.4292,-1.4282,-1.4295,-1.4297,-1.4278,-1.4277,-1.4264,-1.4264,-1.4264,-1.4264,0,-1.4955,-1.4905,-1.4859,-1.479,-1.4772,-1.475,-1.4691,-1.4666,-1.4628,-1.4587,-1.4575,-1.4515,-1.447,-1.4421,-1.4359,-1.4335,-1.4297,-1.4285,-1.4314,-1.4309,-1.4304,-1.4305,-1.4298,-1.4294,-1.4277,-1.4277,-1.4277,0,-1.496,-1.4936,-1.4865,-1.4839,-1.4808,-1.4768,-1.4738,-1.4687,-1.4658,-1.4596,-1.4578,-1.453,-1.4488,-1.4418,-1.4369,-1.4322,-1.4307,-1.4307,-1.4299,-1.4312,-1.4305,-1.4307,-1.4303,-1.431,-1.431,-1.4311,-1.4311,0,-1.4973,-1.4949,-1.4907,-1.4857,-1.4822,-1.478,-1.4737,-1.4719,-1.4658,-1.4627,-1.458,-1.4548,-1.4484,-1.4436,-1.4383,-1.4349,-1.432,-1.4314,-1.431,-1.4322,-1.4339,-1.4328,-1.432,-1.4314,-1.4314,-1.4314,-1.4313,-1.4313,-1.499,-1.4966,-1.4912,-1.4866,-1.4828,-1.4788,-1.476,-1.4718,-1.4677,-1.4621,-1.4593,-1.4546,-1.4494,-1.4419,-1.4386,-1.4349,-1.4339,-1.4334,-1.4332,-1.4331,-1.4333,-1.4346,-1.4339,-1.4339,-1.4339,-1.4338,-1.4338,0,-1.5,-1.4962,-1.4921,-1.486,-1.4825,-1.48,-1.475,-1.4722,-1.468,-1.4634,-1.4594,-1.4539,-1.4492,-1.4439,-1.4389,-1.4369,-1.4354,-1.4357,-1.4358,-1.435,-1.4345,-1.4353,-1.437,-1.437,-1.437,-1.437,-1.437,-1.437,-1.5,-1.4959,-1.4928,-1.4867,-1.4829,-1.4782,-1.4756,-1.4718,-1.4681,-1.4621,-1.4582,-1.4548,-1.4499,-1.4444,-1.44,-1.4386,-1.4369,-1.4376,-1.4358,-1.4354,-1.4351,-1.4349,-1.4356,-1.4373,-1.4373,-1.4366,-1.4366,-1.4366]}]]